カタログに戻る

CZ-6A DEB

運用中PO
NORAD 61145·DEBRIS·🇨🇳 China

打ち上げ Aug 6, 2024 から Taiyuan Satellite Launch Center

Loading…

次のパス (今後24時間)

TLE

最新Source: Space-Track

元期: Sep 14, 2026, 22:22 UTC

1 61145U 24140QP  26257.93247910  .00026085  00000-0  29792-2 0  9997
2 61145  88.9292 251.5054 0044790 273.3350  86.2753 14.85218067110506

AllMySatでCZ-6A DEBをリアルタイム追跡

Download on the App Store